Terug naar catalogus

FENGYUN 1C DEB

LostSSO
NORAD 38515·DEBRIS·🇨🇳 China

Gelanceerd May 10, 1999 vanaf Taiyuan Satellite Launch Center

Loading…

Volgende Passages (komende 24 uur)

TLE

VerouderdSource: Space-Track

Epoch: Feb 6, 2016, 07:10 UTC

1 38515U 99025ETA 16037.29875325 +.00000582 +00000-0 +36115-3 0  9999
2 38515 099.0314 067.0767 0040408 310.8249 048.6865 14.08778441329113

Volg FENGYUN 1C DEB in realtime met AllMySat

Download on the App Store